Wind_Speed
7 5 5 4 4 3 3 2 1 1 0 0 1 2 3 3 4 4 4 5 5 5 6 6 7 7 6 6 5 5 5 5 5 5 5 5 6 5 5 5 4 5 5 5
8 8 7 5 4 3 3 2 2 2 1 0 1 2 3 3 3 3 4 4 4 5 5 5 6 6 6 5 5 4 4 4 4 4 5 5 5 5 5 5 5 5 5 5
10 10 9 7 5 4 4 4 3 2 2 1 1 3 3 2 3 3 4 4 4 4 4 5 5 5 5 5 4 4 3 3 4 4 4 4 5 5 5 5 5 5 5 5
12 11 10 9 7 6 5 5 4 3 3 3 2 3 4 4 3 4 4 5 5 4 4 5 5 5 5 4 4 4 3 3 3 3 3 4 4 4 4 4 5 5 5 4
13 12 11 10 9 8 7 7 6 5 4 5 5 4 5 5 4 4 5 5 5 5 4 4 5 5 4 4 4 3 3 2 1 2 3 3 4 4 4 4 5 5 5 5
14 13 13 12 11 10 9 8 7 7 6 7 7 5 5 6 5 4 5 6 5 5 5 5 5 5 4 4 4 4 3 3 2 2 2 3 4 4 4 5 6 6 6 6
15 15 14 13 12 11 10 8 8 8 8 9 8 7 7 7 6 6 6 7 6 6 6 6 6 5 5 5 5 5 5 5 4 3 3 3 4 4 5 5 6 7 7 7
16 15 15 14 13 12 11 10 10 9 9 9 10 9 9 8 7 7 7 7 7 7 7 7 7 7 7 7 7 6 6 5 4 4 4 4 5 5 6 6 7 7 8 8
17 17 16 16 15 14 13 12 11 10 11 10 10 11 10 11 9 8 7 7 8 8 9 9 9 8 8 8 8 8 8 7 7 6 6 6 6 6 7 7 8 8 9 9
18 18 18 17 16 16 15 13 12 12 12 11 11 11 11 11 10 9 9 9 9 9 9 9 9 9 10 10 10 10 10 9 8 7 6 7 7 8 8 8 9 10 11 10
19 19 19 18 17 16 16 15 14 13 13 11 11 11 12 12 11 10 9 9 10 10 10 10 10 11 11 12 12 11 11 10 10 9 8 8 8 10 9 9 10 11 11 12
20 20 20 20 19 18 18 17 16 15 15 13 12 13 13 12 12 12 11 11 11 11 11 12 12 13 13 13 13 12 12 11 11 11 11 11 11 11 11 11 11 12 13 13
21 21 20 20 20 20 20 18 18 17 16 15 13 14 15 14 13 13 12 12 12 12 12 13 13 14 14 14 14 13 13 13 13 13 13 12 12 13 13 14 14 15 16 16
22 23 21 20 21 21 21 20 19 18 17 17 16 16 16 16 15 15 14 13 12 13 13 13 14 14 15 15 15 15 15 15 15 15 14 14 15 15 16 16 16 17 18 18
22 23 23 23 23 22 21 20 20 20 20 19 18 18 18 18 17 17 16 15 14 13 14 14 14 15 15 16 16 17 17 17 17 17 17 17 17 18 18 18 18 19 20 20
23 23 23 23 23 23 23 22 22 22 22 21 20 20 20 19 19 19 18 17 17 16 16 17 17 17 17 18 18 19 18 19 18 19 19 19 19 20 20 21 21 22 22 22
24 24 23 23 23 23 24 24 24 23 23 22 22 21 22 22 21 21 20 19 19 19 19 18 18 19 19 20 20 21 20 21 21 21 22 22 21 22 23 23 23 24 24 23
24 24 24 23 23 24 24 24 24 24 24 23 23 23 23 23 23 23 22 22 22 21 21 21 20 20 21 22 22 22 22 23 23 23 24 24 24 25 25 25 25 24 24 24
26 25 25 24 24 24 25 24 24 24 25 24 25 25 24 24 24 25 24 24 24 23 23 23 22 22 23 23 24 24 24 24 25 25 25 25 25 26 26 26 26 26 26 26
27 26 26 26 25 23 24 23 23 24 26 25 25 26 25 25 26 26 26 26 26 25 25 25 25 25 26 26 26 26 26 26 26 27 27 27 27 27 28 27 27 27 28 28
27 27 27 26 26 25 26 25 24 24 26 26 26 26 26 26 27 27 27 28 27 27 27 27 27 27 28 28 28 27 27 28 28 29 29 30 29 29 29 29 29 29 29 29
28 28 28 28 27 27 28 28 27 27 27 27 27 27 27 28 27 27 27 27 28 27 27 27 28 29 29 29 29 29 29 29 30 30 31 31 31 31 31 31 31 31 30 29
29 29 29 30 30 30 31 30 29 29 28 28 27 28 28 28 28 28 28 27 28 28 28 28 29 30 30 30 30 31 31 31 31 31 32 32 33 32 32 32 32 31 31 30
30 30 30 30 30 30 30 30 30 30 29 29 28 29 29 29 28 28 28 28 29 29 29 30 30 31 31 31 31 32 32 32 32 32 33 33 33 33 32 32 32 31 31 31
29 28 29 30 29 30 29 29 30 30 30 31 30 30 29 29 29 29 28 29 29 30 30 31 31 32 32 32 32 33 33 32 31 31 32 32 33 32 32 32 32 31 31 32
29 29 29 30 29 30 30 30 31 31 31 31 31 31 30 30 30 30 29 30 30 31 32 32 32 33 33 33 33 33 33 32 32 32 32 32 32 32 32 32 32 32 33 32
Wind_Direction
207 209 208 211 206 199 214 207 226 250 253 87 53 30 27 26 33 35 36 36 35 30 26 23 25 27 26 27 34 43 50 60 57 55 57 57 52 48 46 47 45 36 28 26
213 219 220 224 230 236 241 235 258 259 283 50 52 354 353 4 10 20 10 12 17 15 10 12 14 20 24 22 24 29 42 53 53 51 54 53 50 47 47 44 41 34 24 22
218 224 226 232 240 245 256 253 248 251 267 322 353 340 324 335 338 342 340 341 346 349 355 1 5 8 12 14 16 16 22 34 44 47 49 48 46 41 41 40 36 31 26 24
221 222 228 229 235 242 256 250 245 254 276 295 304 301 294 297 315 322 322 324 324 323 333 344 350 354 2 8 13 8 8 24 37 37 43 37 33 30 30 29 28 23 14 10
226 226 228 230 236 240 246 245 246 258 268 282 291 284 284 286 292 300 301 307 314 315 319 324 329 335 345 357 4 11 7 355 1 4 11 21 16 12 11 15 15 10 4 359
227 228 229 229 232 237 243 242 251 267 274 275 276 273 276 280 282 283 283 289 298 305 311 314 321 320 325 335 341 340 342 334 302 303 324 343 354 357 359 3 1 356 351 348
230 231 232 231 232 238 242 243 258 265 263 270 273 271 272 273 276 276 276 276 285 292 300 303 310 311 305 309 315 318 321 318 295 275 285 308 331 342 341 341 345 348 344 341
232 236 234 231 230 238 242 240 243 255 263 273 279 278 274 275 278 278 277 276 280 285 292 292 294 297 294 296 299 303 310 310 291 276 278 289 312 322 321 325 329 335 335 333
230 234 235 234 233 237 245 244 245 252 260 264 272 283 280 278 280 277 273 273 274 278 286 287 285 287 285 288 292 296 298 295 288 280 286 292 304 312 314 315 319 322 325 326
230 233 235 236 238 238 242 246 250 249 255 265 276 281 283 282 281 274 269 268 268 272 277 278 276 277 280 284 288 294 293 286 286 291 292 291 297 303 305 310 311 313 315 318
230 233 235 236 238 241 242 247 250 255 256 260 273 276 276 278 276 271 267 268 268 269 270 272 273 273 275 279 285 291 290 285 285 286 288 292 294 298 303 308 307 308 312 315
231 236 238 239 239 239 241 245 249 254 259 260 264 273 274 276 277 272 270 269 270 270 269 269 270 271 273 274 280 285 285 285 286 287 285 289 292 295 298 304 306 307 308 311
234 235 238 243 244 241 242 246 250 253 256 259 264 270 272 272 274 273 271 270 269 269 269 268 269 271 271 271 274 277 280 282 283 285 288 292 298 300 300 303 304 305 306 306
235 236 235 237 243 246 246 248 252 253 256 260 263 266 269 269 271 273 271 272 271 270 270 270 270 271 272 273 271 270 277 281 281 281 284 288 292 295 297 299 300 302 304 304
236 239 238 238 241 243 247 251 253 253 254 257 262 267 269 268 269 272 271 270 269 271 272 273 273 272 273 274 272 272 274 276 277 277 280 284 288 291 294 296 297 299 301 302
236 239 240 241 242 244 248 251 253 254 255 255 258 263 266 268 270 271 269 267 266 266 270 273 275 275 275 276 275 274 273 273 276 278 280 282 286 290 291 292 294 296 298 299
237 239 241 245 246 248 250 251 253 254 254 257 259 261 266 267 269 269 268 266 265 266 268 271 272 273 274 274 275 274 273 273 274 277 278 279 282 286 288 290 293 294 296 296
238 240 241 246 249 251 251 252 253 254 255 257 259 262 266 267 269 268 268 267 266 266 267 268 269 270 273 274 273 272 273 273 274 274 277 278 281 285 288 290 291 294 295 297
240 241 243 246 251 252 253 254 255 255 256 257 258 262 265 268 269 267 267 267 266 267 268 268 268 269 271 274 275 271 271 272 272 274 276 279 281 285 288 289 290 291 292 294
242 243 244 247 250 251 256 257 256 256 257 256 258 261 264 266 266 266 265 266 265 266 267 268 268 269 270 272 272 271 271 272 274 276 278 280 282 284 287 289 289 289 291 292
242 243 245 249 251 254 257 259 258 257 260 261 261 262 263 265 266 266 266 266 267 265 264 266 268 269 270 271 271 271 272 272 272 275 277 280 282 284 285 287 290 291 291 292
244 247 248 250 252 255 259 259 259 259 261 264 265 264 264 265 266 267 268 268 267 267 265 265 266 268 270 271 271 270 271 272 271 273 275 278 282 284 284 285 287 289 291 292
245 247 250 252 254 256 259 261 261 261 262 264 264 264 264 265 266 266 268 268 267 267 267 266 266 267 269 269 270 270 270 272 272 273 277 278 280 283 283 284 286 287 289 291
247 249 251 254 255 257 259 260 260 261 261 262 264 265 266 265 265 266 266 266 266 265 265 265 266 267 268 268 269 268 270 271 272 274 276 278 279 280 281 282 285 287 289 290
249 251 252 253 256 258 259 260 260 260 260 261 263 264 266 266 265 265 265 264 263 264 263 263 263 264 265 267 268 268 270 272 273 273 276 278 279 280 280 282 284 286 288 290
248 250 252 254 257 258 259 261 262 262 261 262 263 264 266 267 267 266 266 264 263 263 264 264 262 263 265 266 268 270 270 270 273 274 276 278 281 280 279 280 281 283 286 289
Height
5919 5921 5922 5922 5922 5924 5924 5925 5925 5924 5923 5923 5923 5923 5922 5921 5920 5919 5918 5918 5917 5916 5914 5913 5912 5910 5909 5907 5907 5906 5905 5904 5903 5902 5901 5901 5900 5899 5899 5898 5897 5897 5896 5895
5919 5920 5921 5921 5921 5922 5923 5924 5924 5924 5923 5923 5923 5923 5922 5921 5921 5920 5919 5918 5918 5917 5915 5914 5913 5911 5910 5908 5907 5906 5905 5905 5904 5903 5902 5902 5901 5900 5900 5899 5898 5897 5896 5895
5916 5919 5919 5919 5920 5921 5922 5922 5923 5923 5922 5923 5923 5923 5922 5922 5921 5920 5919 5919 5918 5917 5916 5915 5913 5912 5910 5909 5907 5907 5906 5905 5904 5903 5903 5902 5902 5901 5900 5899 5898 5897 5896 5896
5913 5915 5916 5918 5919 5919 5920 5921 5921 5922 5922 5923 5923 5924 5923 5921 5921 5920 5919 5919 5918 5917 5916 5915 5913 5912 5910 5909 5908 5907 5906 5905 5904 5904 5903 5903 5902 5901 5900 5899 5898 5897 5896 5895
5911 5913 5914 5915 5917 5918 5919 5919 5919 5920 5921 5922 5922 5923 5923 5921 5920 5920 5919 5918 5917 5917 5916 5914 5913 5912 5911 5909 5908 5907 5906 5906 5905 5904 5903 5903 5902 5901 5900 5899 5898 5897 5896 5895
5909 5910 5911 5913 5914 5915 5916 5917 5918 5918 5920 5921 5921 5922 5922 5920 5919 5919 5918 5917 5917 5916 5915 5914 5913 5912 5911 5910 5909 5908 5907 5905 5905 5904 5903 5903 5902 5901 5900 5899 5898 5897 5896 5894
5906 5907 5908 5910 5911 5913 5914 5916 5918 5919 5920 5920 5919 5919 5919 5918 5918 5917 5917 5916 5916 5915 5914 5914 5913 5912 5911 5910 5909 5908 5907 5905 5904 5903 5903 5902 5901 5901 5900 5899 5898 5896 5895 5894
5903 5905 5906 5907 5909 5910 5911 5914 5917 5919 5919 5919 5916 5916 5917 5916 5915 5915 5915 5914 5914 5914 5913 5913 5912 5911 5910 5909 5908 5907 5906 5905 5903 5902 5902 5901 5901 5900 5899 5898 5897 5896 5894 5893
5901 5902 5903 5904 5906 5907 5909 5910 5912 5914 5915 5916 5915 5914 5913 5913 5913 5913 5913 5912 5912 5912 5912 5911 5910 5909 5909 5908 5907 5906 5905 5904 5902 5901 5901 5900 5900 5899 5898 5897 5896 5894 5893 5891
5896 5898 5899 5901 5902 5904 5906 5907 5909 5910 5911 5913 5913 5912 5911 5910 5910 5910 5910 5910 5910 5909 5909 5909 5908 5908 5907 5906 5906 5905 5903 5902 5901 5900 5899 5899 5898 5898 5896 5895 5894 5893 5891 5890
5892 5894 5896 5897 5899 5900 5902 5904 5905 5906 5907 5910 5911 5912 5908 5907 5907 5907 5907 5907 5907 5907 5906 5906 5906 5905 5905 5904 5904 5903 5901 5901 5900 5899 5898 5897 5897 5896 5894 5893 5892 5891 5889 5887
5887 5890 5891 5893 5895 5896 5898 5899 5901 5903 5903 5904 5906 5909 5904 5904 5904 5904 5904 5904 5904 5904 5903 5903 5903 5902 5902 5902 5901 5901 5899 5898 5897 5897 5896 5895 5894 5894 5893 5891 5890 5888 5887 5885
5882 5885 5887 5889 5892 5892 5893 5895 5897 5898 5899 5900 5903 5905 5901 5900 5900 5900 5900 5900 5900 5900 5900 5899 5899 5899 5899 5899 5898 5898 5897 5896 5895 5894 5894 5893 5892 5891 5890 5889 5887 5885 5884 5882
5877 5879 5883 5886 5887 5887 5888 5890 5892 5894 5895 5896 5897 5898 5897 5897 5897 5896 5897 5897 5897 5897 5896 5896 5895 5895 5895 5895 5895 5894 5894 5893 5892 5891 5891 5890 5889 5888 5887 5885 5883 5882 5880 5878
5871 5873 5876 5878 5879 5881 5883 5885 5887 5888 5890 5892 5892 5892 5892 5892 5892 5892 5892 5893 5893 5893 5893 5892 5892 5892 5891 5891 5891 5890 5890 5889 5888 5888 5887 5886 5885 5884 5883 5881 5879 5878 5875 5873
5865 5868 5870 5872 5873 5875 5877 5879 5881 5882 5884 5885 5886 5887 5886 5887 5887 5887 5888 5888 5888 5889 5889 5888 5888 5887 5887 5887 5886 5886 5885 5885 5884 5884 5883 5882 5880 5879 5878 5876 5874 5872 5870 5868
5860 5862 5865 5867 5868 5869 5871 5874 5875 5876 5878 5879 5880 5881 5881 5881 5881 5882 5882 5883 5883 5883 5884 5883 5883 5883 5883 5882 5881 5881 5880 5880 5879 5878 5878 5876 5875 5874 5872 5870 5868 5866 5864 5862
5854 5857 5859 5861 5863 5864 5868 5867 5869 5870 5871 5873 5873 5874 5874 5875 5876 5876 5876 5877 5877 5877 5877 5878 5878 5877 5877 5876 5876 5875 5875 5874 5873 5873 5872 5871 5869 5868 5866 5864 5862 5859 5858 5856
5848 5850 5853 5855 5856 5858 5860 5861 5862 5864 5865 5866 5866 5867 5868 5868 5869 5869 5870 5870 5870 5870 5871 5871 5871 5871 5871 5870 5870 5869 5868 5868 5867 5866 5865 5864 5863 5861 5859 5857 5855 5853 5851 5849
5842 5844 5847 5849 5851 5853 5854 5854 5855 5858 5858 5859 5859 5860 5861 5861 5862 5863 5862 5863 5863 5863 5864 5864 5864 5864 5864 5863 5863 5862 5862 5861 5861 5860 5859 5857 5856 5855 5853 5850 5848 5846 5844 5842
5835 5837 5840 5842 5844 5846 5846 5847 5849 5852 5852 5851 5852 5853 5854 5854 5854 5855 5855 5855 5855 5856 5856 5856 5857 5857 5856 5856 5856 5855 5854 5854 5853 5852 5851 5850 5849 5847 5845 5843 5841 5839 5837 5835
5828 5830 5833 5835 5837 5840 5838 5840 5842 5843 5843 5844 5844 5845 5845 5846 5846 5846 5846 5847 5847 5847 5848 5848 5848 5848 5848 5848 5847 5847 5846 5846 5845 5844 5843 5842 5841 5839 5837 5835 5834 5831 5829 5827
5820 5823 5825 5827 5830 5830 5830 5832 5833 5834 5835 5836 5836 5836 5837 5837 5838 5838 5838 5838 5839 5839 5839 5839 5840 5840 5840 5839 5839 5838 5838 5837 5836 5835 5834 5833 5832 5830 5829 5827 5825 5823 5821 5819
5812 5814 5816 5818 5819 5821 5822 5823 5824 5825 5826 5827 5828 5828 5828 5829 5829 5829 5830 5830 5830 5830 5830 5831 5831 5831 5831 5830 5830 5829 5828 5828 5827 5826 5825 5824 5823 5821 5820 5818 5817 5815 5813 5810
5804 5806 5807 5809 5811 5812 5813 5814 5815 5816 5817 5818 5819 5819 5820 5820 5820 5821 5821 5821 5821 5822 5822 5822 5822 5822 5822 5821 5820 5820 5819 5818 5818 5817 5816 5815 5814 5812 5811 5809 5808 5806 5804 5802
5796 5798 5799 5800 5802 5803 5804 5805 5806 5807 5808 5809 5809 5810 5810 5811 5811 5812 5812 5812 5812 5812 5812 5812 5812 5812 5812 5811 5811 5810 5809 5809 5808 5808 5807 5806 5804 5803 5801 5800 5798 5796 5795 5793